Year,Month,Day,Hour,Minute,Value (Times are PST for barometer in hPa)
2020,11,17,00,00,999.76
2020,11,17,00,01,999.80
2020,11,17,00,02,999.83
2020,11,17,00,03,999.90
2020,11,17,00,04,999.93
2020,11,17,00,05,999.90
2020,11,17,00,06,999.83
2020,11,17,00,07,999.79
2020,11,17,00,08,999.63
2020,11,17,00,09,999.49
2020,11,17,00,10,999.49
2020,11,17,00,11,999.49
2020,11,17,00,12,999.39
2020,11,17,00,13,999.32
2020,11,17,00,14,999.39
2020,11,17,00,15,999.43
2020,11,17,00,16,999.43
2020,11,17,00,17,999.36
2020,11,17,00,18,999.32
2020,11,17,00,19,999.36
2020,11,17,00,20,999.29
2020,11,17,00,21,999.28
2020,11,17,00,22,999.12
2020,11,17,00,23,999.09
2020,11,17,00,24,999.02
2020,11,17,00,25,998.99
2020,11,17,00,26,998.92
2020,11,17,00,27,998.82
2020,11,17,00,28,998.68
2020,11,17,00,29,998.58
2020,11,17,00,30,998.61
2020,11,17,00,31,998.61
2020,11,17,00,32,998.65
2020,11,17,00,33,998.65
2020,11,17,00,34,998.58
2020,11,17,00,35,998.58
2020,11,17,00,36,998.54
2020,11,17,00,37,998.58
2020,11,17,00,38,998.61
2020,11,17,00,39,998.58
2020,11,17,00,40,998.54
2020,11,17,00,41,998.58
2020,11,17,00,42,998.65
2020,11,17,00,43,998.68
2020,11,17,00,44,998.82
2020,11,17,00,45,998.78
2020,11,17,00,46,998.82
2020,11,17,00,47,998.78
2020,11,17,00,48,998.68
2020,11,17,00,49,998.58
2020,11,17,00,50,998.44
2020,11,17,00,51,998.30
2020,11,17,00,52,998.14
2020,11,17,00,53,998.14
2020,11,17,00,54,998.09
2020,11,17,00,55,997.94
2020,11,17,00,56,997.94
2020,11,17,00,57,998.04
2020,11,17,00,58,998.07
2020,11,17,00,59,998.14
2020,11,17,01,00,998.10
2020,11,17,01,01,997.90
2020,11,17,01,02,997.77
2020,11,17,01,03,997.70
2020,11,17,01,04,997.73
2020,11,17,01,05,997.66
2020,11,17,01,06,997.63
2020,11,17,01,07,997.70
2020,11,17,01,08,997.73
2020,11,17,01,09,997.73
2020,11,17,01,10,997.77
2020,11,17,01,11,997.63
2020,11,17,01,12,997.46
2020,11,17,01,13,997.46
2020,11,17,01,14,997.53
2020,11,17,01,15,997.50
2020,11,17,01,16,997.46
2020,11,17,01,17,997.43
2020,11,17,01,18,997.36
2020,11,17,01,19,997.39
2020,11,17,01,20,997.33
2020,11,17,01,21,997.29
2020,11,17,01,22,997.29
2020,11,17,01,23,997.22
2020,11,17,01,24,997.16
2020,11,17,01,25,997.16
2020,11,17,01,26,997.16
2020,11,17,01,27,997.05
2020,11,17,01,28,996.92
2020,11,17,01,29,996.85
2020,11,17,01,30,996.85
2020,11,17,01,31,996.85
2020,11,17,01,32,996.85
2020,11,17,01,33,996.78
2020,11,17,01,34,996.74
2020,11,17,01,35,996.61
2020,11,17,01,36,996.58
2020,11,17,01,37,996.54
2020,11,17,01,38,996.41
2020,11,17,01,39,996.31
2020,11,17,01,40,996.28
2020,11,17,01,41,996.28
2020,11,17,01,42,996.31
2020,11,17,01,43,996.24
2020,11,17,01,44,996.21
2020,11,17,01,45,996.14
2020,11,17,01,46,996.11
2020,11,17,01,47,996.14
2020,11,17,01,48,996.11
2020,11,17,01,49,996.11
2020,11,17,01,50,996.07
2020,11,17,01,51,996.11
2020,11,17,01,52,996.17
2020,11,17,01,53,996.21
2020,11,17,01,54,996.24
2020,11,17,01,55,996.31
2020,11,17,01,56,996.37
2020,11,17,01,57,996.17
2020,11,17,01,58,996.11
2020,11,17,01,59,996.07
2020,11,17,02,00,996.01
2020,11,17,02,01,996.04
2020,11,17,02,02,996.11
2020,11,17,02,03,996.04
2020,11,17,02,04,995.90
2020,11,17,02,05,995.96
2020,11,17,02,06,995.80
2020,11,17,02,07,995.73
2020,11,17,02,08,995.60
2020,11,17,02,09,995.63
2020,11,17,02,10,995.56
2020,11,17,02,11,995.60
2020,11,17,02,12,995.60
2020,11,17,02,13,995.53
2020,11,17,02,14,995.53
2020,11,17,02,15,995.50
2020,11,17,02,16,995.46
2020,11,17,02,17,995.53
2020,11,17,02,18,995.56
2020,11,17,02,19,995.53
2020,11,17,02,20,995.43
2020,11,17,02,21,995.46
2020,11,17,02,22,995.43
2020,11,17,02,23,995.35
2020,11,17,02,24,995.19
2020,11,17,02,25,995.09
2020,11,17,02,26,995.06
2020,11,17,02,27,995.06
2020,11,17,02,28,994.96
2020,11,17,02,29,994.96
2020,11,17,02,30,994.96
2020,11,17,02,31,994.85
2020,11,17,02,32,994.85
2020,11,17,02,33,994.82
2020,11,17,02,34,994.82
2020,11,17,02,35,994.72
2020,11,17,02,36,994.68
2020,11,17,02,37,994.72
2020,11,17,02,38,994.68
2020,11,17,02,39,994.72
2020,11,17,02,40,994.72
2020,11,17,02,41,994.68
2020,11,17,02,42,994.72
2020,11,17,02,43,994.75
2020,11,17,02,44,994.72
2020,11,17,02,45,994.72
2020,11,17,02,46,994.68
2020,11,17,02,47,994.58
2020,11,17,02,48,994.52
2020,11,17,02,49,994.48
2020,11,17,02,50,994.52
2020,11,17,02,51,994.55
2020,11,17,02,52,994.52
2020,11,17,02,53,994.41
2020,11,17,02,54,994.41
2020,11,17,02,55,994.31
2020,11,17,02,56,994.31
2020,11,17,02,57,994.28
2020,11,17,02,58,994.24
2020,11,17,02,59,994.28
2020,11,17,03,00,994.18
2020,11,17,03,01,993.94
2020,11,17,03,02,993.87
2020,11,17,03,03,993.91
2020,11,17,03,04,993.80
2020,11,17,03,05,993.84
2020,11,17,03,06,993.91
2020,11,17,03,07,993.77
2020,11,17,03,08,993.74
2020,11,17,03,09,993.84
2020,11,17,03,10,993.77
2020,11,17,03,11,993.67
2020,11,17,03,12,993.63
2020,11,17,03,13,993.63
2020,11,17,03,14,993.63
2020,11,17,03,15,993.53
2020,11,17,03,16,993.47
2020,11,17,03,17,993.47
2020,11,17,03,18,993.39
2020,11,17,03,19,993.24
2020,11,17,03,20,993.40
2020,11,17,03,21,993.47
2020,11,17,03,22,993.36
2020,11,17,03,23,993.23
2020,11,17,03,24,993.26
2020,11,17,03,25,993.35
2020,11,17,03,26,993.19
2020,11,17,03,27,993.29
2020,11,17,03,28,993.13
2020,11,17,03,29,993.15
2020,11,17,03,30,992.92
2020,11,17,03,31,992.86
2020,11,17,03,32,992.82
2020,11,17,03,33,992.79
2020,11,17,03,34,992.82
2020,11,17,03,35,992.82
2020,11,17,03,36,992.82
2020,11,17,03,37,992.69
2020,11,17,03,38,992.66
2020,11,17,03,39,992.79
2020,11,17,03,40,992.82
2020,11,17,03,41,992.75
2020,11,17,03,42,992.79
2020,11,17,03,43,992.69
2020,11,17,03,44,992.58
2020,11,17,03,45,992.55
2020,11,17,03,46,992.45
2020,11,17,03,47,992.48
2020,11,17,03,48,992.42
2020,11,17,03,49,992.38
2020,11,17,03,50,992.31
2020,11,17,03,51,992.35
2020,11,17,03,52,992.38
2020,11,17,03,53,992.31
2020,11,17,03,54,992.21
2020,11,17,03,55,992.18
2020,11,17,03,56,992.18
2020,11,17,03,57,992.25
2020,11,17,03,58,992.25
2020,11,17,03,59,992.18
2020,11,17,04,00,992.11
2020,11,17,04,01,992.04
2020,11,17,04,02,991.87
2020,11,17,04,03,991.78
2020,11,17,04,04,991.91
2020,11,17,04,05,991.77
2020,11,17,04,06,991.70
2020,11,17,04,07,991.87
2020,11,17,04,08,991.84
2020,11,17,04,09,991.87
2020,11,17,04,10,991.80
2020,11,17,04,11,991.67
2020,11,17,04,12,991.67
2020,11,17,04,13,991.70
2020,11,17,04,14,991.81
2020,11,17,04,15,991.84
2020,11,17,04,16,991.84
2020,11,17,04,17,991.81
2020,11,17,04,18,991.80
2020,11,17,04,19,991.64
2020,11,17,04,20,991.60
2020,11,17,04,21,991.60
2020,11,17,04,22,991.47
2020,11,17,04,23,991.43
2020,11,17,04,24,991.43
2020,11,17,04,25,991.40
2020,11,17,04,26,991.33
2020,11,17,04,27,991.37
2020,11,17,04,28,991.32
2020,11,17,04,29,991.16
2020,11,17,04,30,991.06
2020,11,17,04,31,991.16
2020,11,17,04,32,991.20
2020,11,17,04,33,991.20
2020,11,17,04,34,991.16
2020,11,17,04,35,990.86
2020,11,17,04,36,990.82
2020,11,17,04,37,990.93
2020,11,17,04,38,990.93
2020,11,17,04,39,990.86
2020,11,17,04,40,990.79
2020,11,17,04,41,990.59
2020,11,17,04,42,990.65
2020,11,17,04,43,990.53
2020,11,17,04,44,990.69
2020,11,17,04,45,990.55
2020,11,17,04,46,990.54
2020,11,17,04,47,990.38
2020,11,17,04,48,990.38
2020,11,17,04,49,990.38
2020,11,17,04,50,990.49
2020,11,17,04,51,990.44
2020,11,17,04,52,990.28
2020,11,17,04,53,990.32
2020,11,17,04,54,990.25
2020,11,17,04,55,990.18
2020,11,17,04,56,990.15
2020,11,17,04,57,990.08
2020,11,17,04,58,990.08
2020,11,17,04,59,990.08
2020,11,17,05,00,990.04
2020,11,17,05,01,990.01
2020,11,17,05,02,989.98
2020,11,17,05,03,989.91
2020,11,17,05,04,989.88
2020,11,17,05,05,989.77
2020,11,17,05,06,989.77
2020,11,17,05,07,989.88
2020,11,17,05,08,989.84
2020,11,17,05,09,989.77
2020,11,17,05,10,989.67
2020,11,17,05,11,989.77
2020,11,17,05,12,989.67
2020,11,17,05,13,989.60
2020,11,17,05,14,989.50
2020,11,17,05,15,989.50
2020,11,17,05,16,989.50
2020,11,17,05,17,989.40
2020,11,17,05,18,989.23
2020,11,17,05,19,989.30
2020,11,17,05,20,989.44
2020,11,17,05,21,989.37
2020,11,17,05,22,989.33
2020,11,17,05,23,989.40
2020,11,17,05,24,989.40
2020,11,17,05,25,989.30
2020,11,17,05,26,989.26
2020,11,17,05,27,989.09
2020,11,17,05,28,988.96
2020,11,17,05,29,989.00
2020,11,17,05,30,988.96
2020,11,17,05,31,988.78
2020,11,17,05,32,988.62
2020,11,17,05,33,988.59
2020,11,17,05,34,988.66
2020,11,17,05,35,988.59
2020,11,17,05,36,988.59
2020,11,17,05,37,988.52
2020,11,17,05,38,988.39
2020,11,17,05,39,988.28
2020,11,17,05,40,988.18
2020,11,17,05,41,988.11
2020,11,17,05,42,988.01
2020,11,17,05,43,987.98
2020,11,17,05,44,987.88
2020,11,17,05,45,987.88
2020,11,17,05,46,987.74
2020,11,17,05,47,987.64
2020,11,17,05,48,987.35
2020,11,17,05,49,987.51
2020,11,17,05,50,987.71
2020,11,17,05,51,987.77
2020,11,17,05,52,987.61
2020,11,17,05,53,987.54
2020,11,17,05,54,987.34
2020,11,17,05,55,987.43
2020,11,17,05,56,987.30
2020,11,17,05,57,987.37
2020,11,17,05,58,987.40
2020,11,17,05,59,987.37
2020,11,17,06,00,987.34
2020,11,17,06,01,987.46
2020,11,17,06,02,987.27
2020,11,17,06,03,987.20
2020,11,17,06,04,987.13
2020,11,17,06,05,987.06
2020,11,17,06,06,987.03
2020,11,17,06,07,987.03
2020,11,17,06,08,987.10
2020,11,17,06,09,986.96
2020,11,17,06,10,986.83
2020,11,17,06,11,986.66
2020,11,17,06,12,986.56
2020,11,17,06,13,986.39
2020,11,17,06,14,986.42
2020,11,17,06,15,986.46
2020,11,17,06,16,986.46
2020,11,17,06,17,986.39
2020,11,17,06,18,986.35
2020,11,17,06,19,986.35
2020,11,17,06,20,986.35
2020,11,17,06,21,986.49
2020,11,17,06,22,986.34
2020,11,17,06,23,986.14
2020,11,17,06,24,985.86
2020,11,17,06,25,986.05
2020,11,17,06,26,985.87
2020,11,17,06,27,985.68
2020,11,17,06,28,985.64
2020,11,17,06,29,985.61
2020,11,17,06,30,985.78
2020,11,17,06,31,985.64
2020,11,17,06,32,985.78
2020,11,17,06,33,985.86
2020,11,17,06,34,985.44
2020,11,17,06,35,985.44
2020,11,17,06,36,985.53
2020,11,17,06,37,985.30
2020,11,17,06,38,985.03
2020,11,17,06,39,985.10
2020,11,17,06,40,984.59
2020,11,17,06,41,984.54
2020,11,17,06,42,984.72
2020,11,17,06,43,984.59
2020,11,17,06,44,985.13
2020,11,17,06,45,985.07
2020,11,17,06,46,984.86
2020,11,17,06,47,984.83
2020,11,17,06,48,984.97
2020,11,17,06,49,984.89
2020,11,17,06,50,984.66
2020,11,17,06,51,984.39
2020,11,17,06,52,984.39
2020,11,17,06,53,984.36
2020,11,17,06,54,984.39
2020,11,17,06,55,984.42
2020,11,17,06,56,984.36
2020,11,17,06,57,984.40
2020,11,17,06,58,984.53
2020,11,17,06,59,984.42
2020,11,17,07,00,984.42
2020,11,17,07,01,984.36
2020,11,17,07,02,984.42
2020,11,17,07,03,984.56
2020,11,17,07,04,984.59
2020,11,17,07,05,984.59
2020,11,17,07,06,984.76
2020,11,17,07,07,984.76
2020,11,17,07,08,984.80
2020,11,17,07,09,984.93
2020,11,17,07,10,984.93
2020,11,17,07,11,984.86
2020,11,17,07,12,984.86
2020,11,17,07,13,984.97
2020,11,17,07,14,984.93
2020,11,17,07,15,984.90
2020,11,17,07,16,984.73
2020,11,17,07,17,984.49
2020,11,17,07,18,984.59
2020,11,17,07,19,984.59
2020,11,17,07,20,984.49
2020,11,17,07,21,984.36
2020,11,17,07,22,984.36
2020,11,17,07,23,984.32
2020,11,17,07,24,984.31
2020,11,17,07,25,984.05
2020,11,17,07,26,984.12
2020,11,17,07,27,984.05
2020,11,17,07,28,983.92
2020,11,17,07,29,983.88
2020,11,17,07,30,983.88
2020,11,17,07,31,983.95
2020,11,17,07,32,983.71
2020,11,17,07,33,983.61
2020,11,17,07,34,983.61
2020,11,17,07,35,983.71
2020,11,17,07,36,983.75
2020,11,17,07,37,983.75
2020,11,17,07,38,983.71
2020,11,17,07,39,983.58
2020,11,17,07,40,983.61
2020,11,17,07,41,983.61
2020,11,17,07,42,983.64
2020,11,17,07,43,983.68
2020,11,17,07,44,983.75
2020,11,17,07,45,983.85
2020,11,17,07,46,983.68
2020,11,17,07,47,983.81
2020,11,17,07,48,983.85
2020,11,17,07,49,983.84
2020,11,17,07,50,983.64
2020,11,17,07,51,983.51
2020,11,17,07,52,983.54
2020,11,17,07,53,983.58
2020,11,17,07,54,983.53
2020,11,17,07,55,983.31
2020,11,17,07,56,983.41
2020,11,17,07,57,983.27
2020,11,17,07,58,983.31
2020,11,17,07,59,983.17
2020,11,17,08,00,983.44
2020,11,17,08,01,983.34
2020,11,17,08,02,983.47
2020,11,17,08,03,983.24
2020,11,17,08,04,983.27
2020,11,17,08,05,983.31
2020,11,17,08,06,983.41
2020,11,17,08,07,983.63
2020,11,17,08,08,983.44
2020,11,17,08,09,983.24
2020,11,17,08,10,983.24
2020,11,17,08,11,983.09
2020,11,17,08,12,982.93
2020,11,17,08,13,982.93
2020,11,17,08,14,982.93
2020,11,17,08,15,982.93
2020,11,17,08,16,983.07
2020,11,17,08,17,983.00
2020,11,17,08,18,982.97
2020,11,17,08,19,982.83
2020,11,17,08,20,982.76
2020,11,17,08,21,982.71
2020,11,17,08,22,983.00
2020,11,17,08,23,983.03
2020,11,17,08,24,982.90
2020,11,17,08,25,982.90
2020,11,17,08,26,982.76
2020,11,17,08,27,982.87
2020,11,17,08,28,982.76
2020,11,17,08,29,982.70
2020,11,17,08,30,982.73
2020,11,17,08,31,982.66
2020,11,17,08,32,982.59
2020,11,17,08,33,982.69
2020,11,17,08,34,982.49
2020,11,17,08,35,982.49
2020,11,17,08,36,982.97
2020,11,17,08,37,982.56
2020,11,17,08,38,982.66
2020,11,17,08,39,982.66
2020,11,17,08,40,982.53
2020,11,17,08,41,982.76
2020,11,17,08,45,982.56
2020,11,17,08,46,982.65
2020,11,17,08,47,982.46
2020,11,17,08,48,982.26
2020,11,17,08,49,982.39
2020,11,17,08,50,982.26
2020,11,17,08,51,982.26
2020,11,17,08,52,982.15
2020,11,17,08,53,981.95
2020,11,17,08,54,982.05
2020,11,17,08,55,981.95
2020,11,17,08,56,982.32
2020,11,17,08,57,982.12
2020,11,17,08,58,981.95
2020,11,17,08,59,981.82
2020,11,17,09,00,981.68
2020,11,17,09,01,981.45
2020,11,17,09,02,981.61
2020,11,17,09,03,981.58
2020,11,17,09,04,981.44
2020,11,17,09,05,981.70
2020,11,17,09,06,981.51
2020,11,17,09,07,981.44
2020,11,17,09,08,981.38
2020,11,17,09,09,981.38
2020,11,17,09,10,981.48
2020,11,17,09,11,981.48
2020,11,17,09,12,981.38
2020,11,17,09,13,981.38
2020,11,17,09,14,981.31
2020,11,17,09,15,981.24
2020,11,17,09,16,980.95
2020,11,17,09,17,981.24
2020,11,17,09,18,981.10
2020,11,17,09,19,980.94
2020,11,17,09,20,980.97
2020,11,17,09,21,980.77
2020,11,17,09,22,980.73
2020,11,17,09,23,980.87
2020,11,17,09,24,980.77
2020,11,17,09,25,980.89
2020,11,17,09,26,980.66
2020,11,17,09,27,980.60
2020,11,17,09,28,980.60
2020,11,17,09,29,980.77
2020,11,17,09,30,980.37
2020,11,17,09,31,980.63
2020,11,17,09,32,980.63
2020,11,17,09,33,980.53
2020,11,17,09,34,980.87
2020,11,17,09,35,980.97
2020,11,17,09,36,980.46
2020,11,17,09,37,980.36
2020,11,17,09,38,980.33
2020,11,17,09,39,980.60
2020,11,17,09,40,980.50
2020,11,17,09,41,980.53
2020,11,17,09,42,980.83
2020,11,17,09,43,980.94
2020,11,17,09,44,980.83
2020,11,17,09,45,980.80
2020,11,17,09,46,980.83
2020,11,17,09,47,981.00
2020,11,17,09,48,980.90
2020,11,17,09,49,981.21
2020,11,17,09,50,981.17
2020,11,17,09,51,981.04
2020,11,17,09,52,981.31
2020,11,17,09,53,981.31
2020,11,17,09,54,981.41
2020,11,17,09,55,981.38
2020,11,17,09,56,981.78
2020,11,17,09,57,981.75
2020,11,17,09,58,981.88
2020,11,17,09,59,981.75
2020,11,17,10,00,981.44
2020,11,17,10,01,981.71
2020,11,17,10,02,981.78
2020,11,17,10,03,981.92
2020,11,17,10,04,981.75
2020,11,17,10,05,981.95
2020,11,17,10,06,981.85
2020,11,17,10,07,981.95
2020,11,17,10,08,981.99
2020,11,17,10,09,981.92
2020,11,17,10,10,981.86
2020,11,17,10,11,982.14
2020,11,17,10,12,981.85
2020,11,17,10,13,982.08
2020,11,17,10,14,981.92
2020,11,17,10,15,981.88
2020,11,17,10,16,981.88
2020,11,17,10,17,981.95
2020,11,17,10,18,982.22
2020,11,17,10,19,982.26
2020,11,17,10,20,982.05
2020,11,17,10,21,982.53
2020,11,17,10,22,982.36
2020,11,17,10,23,982.39
2020,11,17,10,24,982.29
2020,11,17,10,25,982.22
2020,11,17,10,26,982.32
2020,11,17,10,27,982.39
2020,11,17,10,28,982.39
2020,11,17,10,29,982.49
2020,11,17,10,30,982.43
2020,11,17,10,31,982.53
2020,11,17,10,32,982.66
2020,11,17,10,33,982.66
2020,11,17,10,34,982.73
2020,11,17,10,35,982.59
2020,11,17,10,36,982.87
2020,11,17,10,37,982.87
2020,11,17,10,38,982.83
2020,11,17,10,39,982.90
2020,11,17,10,40,982.80
2020,11,17,10,41,983.27
2020,11,17,10,42,983.10
2020,11,17,10,43,982.93
2020,11,17,10,44,983.04
2020,11,17,10,45,983.14
2020,11,17,10,46,983.15
2020,11,17,10,47,983.34
2020,11,17,10,48,983.31
2020,11,17,10,49,983.44
2020,11,17,10,50,983.31
2020,11,17,10,51,983.48
2020,11,17,10,52,983.48
2020,11,17,10,53,983.37
2020,11,17,10,54,983.27
2020,11,17,10,55,983.48
2020,11,17,10,56,983.51
2020,11,17,10,57,983.58
2020,11,17,10,58,983.54
2020,11,17,10,59,983.44
2020,11,17,11,00,983.51
2020,11,17,11,01,983.51
2020,11,17,11,02,983.64
2020,11,17,11,03,983.77
2020,11,17,11,04,983.61
2020,11,17,11,05,983.68
2020,11,17,11,06,983.64
2020,11,17,11,07,983.71
2020,11,17,11,08,983.58
2020,11,17,11,09,983.58
2020,11,17,11,10,983.54
2020,11,17,11,11,983.64
2020,11,17,11,12,983.71
2020,11,17,11,13,983.71
2020,11,17,11,14,983.75
2020,11,17,11,15,983.71
2020,11,17,11,16,983.68
2020,11,17,11,17,983.71
2020,11,17,11,18,983.78
2020,11,17,11,19,983.78
2020,11,17,11,20,983.81
2020,11,17,11,21,983.78
2020,11,17,11,22,983.75
2020,11,17,11,23,983.71
2020,11,17,11,24,983.71
2020,11,17,11,25,983.75
2020,11,17,11,26,983.85
2020,11,17,11,27,983.86
2020,11,17,11,28,984.08
2020,11,17,11,29,984.02
2020,11,17,11,30,984.02
2020,11,17,11,31,983.95
2020,11,17,11,32,984.08
2020,11,17,11,33,984.09
2020,11,17,11,34,984.22
2020,11,17,11,35,984.08
2020,11,17,11,36,984.15
2020,11,17,11,37,984.22
2020,11,17,11,38,984.29
2020,11,17,11,39,984.36
2020,11,17,11,40,984.39
2020,11,17,11,41,984.32
2020,11,17,11,42,984.39
2020,11,17,11,43,984.42
2020,11,17,11,44,984.46
2020,11,17,11,45,984.42
2020,11,17,11,46,984.29
2020,11,17,11,47,984.39
2020,11,17,11,48,984.39
2020,11,17,11,49,984.25
2020,11,17,11,50,984.29
2020,11,17,11,51,984.46
2020,11,17,11,52,984.46
2020,11,17,11,53,984.49
2020,11,17,11,54,984.53
2020,11,17,11,55,984.46
2020,11,17,11,56,984.49
2020,11,17,11,57,984.53
2020,11,17,11,58,984.46
2020,11,17,11,59,984.66
2020,11,17,12,00,984.63
2020,11,17,12,01,984.66
2020,11,17,12,02,984.80
2020,11,17,12,03,984.63
2020,11,17,12,04,984.69
2020,11,17,12,05,984.69
2020,11,17,12,06,984.73
2020,11,17,12,07,984.80
2020,11,17,12,08,984.73
2020,11,17,12,09,984.83
2020,11,17,12,10,984.83
2020,11,17,12,11,984.86
2020,11,17,12,12,984.93
2020,11,17,12,13,984.97
2020,11,17,12,14,984.93
2020,11,17,12,15,985.03
2020,11,17,12,16,984.86
2020,11,17,12,17,985.07
2020,11,17,12,18,985.17
2020,11,17,12,19,985.13
2020,11,17,12,20,985.13
2020,11,17,12,21,985.13
2020,11,17,12,22,985.24
2020,11,17,12,23,985.24
2020,11,17,12,24,985.37
2020,11,17,12,25,985.27
2020,11,17,12,26,985.41
2020,11,17,12,27,985.47
2020,11,17,12,28,985.47
2020,11,17,12,29,985.54
2020,11,17,12,30,985.61
2020,11,17,12,31,985.54
2020,11,17,12,32,985.57
2020,11,17,12,33,985.57
2020,11,17,12,34,985.57
2020,11,17,12,35,985.81
2020,11,17,12,36,985.81
2020,11,17,12,37,985.91
2020,11,17,12,38,985.91
2020,11,17,12,39,985.95
2020,11,17,12,40,985.95
2020,11,17,12,41,986.02
2020,11,17,12,42,985.98
2020,11,17,12,43,986.08
2020,11,17,12,44,986.15
2020,11,17,12,45,986.15
2020,11,17,12,46,986.22
2020,11,17,12,47,986.25
2020,11,17,12,48,986.22
2020,11,17,12,49,986.32
2020,11,17,12,50,986.32
2020,11,17,12,51,986.18
2020,11,17,12,52,986.22
2020,11,17,12,53,986.18
2020,11,17,12,54,986.22
2020,11,17,12,55,986.25
2020,11,17,12,56,986.15
2020,11,17,12,57,986.29
2020,11,17,12,58,986.15
2020,11,17,12,59,986.18
2020,11,17,13,00,986.22
2020,11,17,13,01,986.22
2020,11,17,13,02,986.29
2020,11,17,13,03,986.29
2020,11,17,13,04,986.39
2020,11,17,13,05,986.39
2020,11,17,13,06,986.46
2020,11,17,13,07,986.46
2020,11,17,13,08,986.52
2020,11,17,13,09,986.59
2020,11,17,13,10,986.66
2020,11,17,13,11,986.69
2020,11,17,13,12,986.73
2020,11,17,13,13,986.86
2020,11,17,13,14,987.00
2020,11,17,13,15,986.93
2020,11,17,13,16,987.03
2020,11,17,13,17,986.93
2020,11,17,13,18,986.96
2020,11,17,13,19,987.03
2020,11,17,13,20,987.13
2020,11,17,13,21,987.10
2020,11,17,13,22,987.17
2020,11,17,13,23,987.23
2020,11,17,13,24,987.17
2020,11,17,13,25,987.13
2020,11,17,13,26,987.10
2020,11,17,13,27,987.13
2020,11,17,13,28,987.20
2020,11,17,13,29,987.17
2020,11,17,13,30,987.21
2020,11,17,13,31,987.40
2020,11,17,13,32,987.34
2020,11,17,13,33,987.30
2020,11,17,13,34,987.47
2020,11,17,13,35,987.37
2020,11,17,13,36,987.40
2020,11,17,13,37,987.51
2020,11,17,13,38,987.47
2020,11,17,13,39,987.51
2020,11,17,13,40,987.57
2020,11,17,13,41,987.67
2020,11,17,13,42,987.61
2020,11,17,13,43,987.54
2020,11,17,13,44,987.67
2020,11,17,13,45,987.67
2020,11,17,13,46,987.67
2020,11,17,13,47,987.78
2020,11,17,13,48,987.74
2020,11,17,13,49,987.71
2020,11,17,13,50,987.78
2020,11,17,13,51,987.71
2020,11,17,13,52,987.64
2020,11,17,13,53,987.78
2020,11,17,13,54,987.87
2020,11,17,13,55,987.71
2020,11,17,13,56,987.91
2020,11,17,13,57,987.84
2020,11,17,13,58,987.98
2020,11,17,13,59,988.01
2020,11,17,14,00,988.05
2020,11,17,14,01,988.15
2020,11,17,14,02,988.05
2020,11,17,14,03,988.11
2020,11,17,14,04,988.11
2020,11,17,14,05,988.25
2020,11,17,14,06,988.32
2020,11,17,14,07,988.22
2020,11,17,14,08,988.35
2020,11,17,14,09,988.35
2020,11,17,14,10,988.35
2020,11,17,14,11,988.32
2020,11,17,14,12,988.35
2020,11,17,14,13,988.49
2020,11,17,14,14,988.42
2020,11,17,14,15,988.42
2020,11,17,14,16,988.49
2020,11,17,14,17,988.59
2020,11,17,14,18,988.52
2020,11,17,14,19,988.62
2020,11,17,14,20,988.55
2020,11,17,14,21,988.49
2020,11,17,14,22,988.45
2020,11,17,14,23,988.55
2020,11,17,14,24,988.59
2020,11,17,14,25,988.62
2020,11,17,14,26,988.59
2020,11,17,14,27,988.66
2020,11,17,14,28,988.72
2020,11,17,14,29,988.72
2020,11,17,14,30,988.83
2020,11,17,14,31,988.79
2020,11,17,14,32,988.83
2020,11,17,14,33,988.93
2020,11,17,14,34,988.93
2020,11,17,14,35,988.93
2020,11,17,14,36,988.89
2020,11,17,14,37,988.89
2020,11,17,14,38,988.83
2020,11,17,14,39,989.00
2020,11,17,14,40,989.00
2020,11,17,14,41,989.00
2020,11,17,14,42,989.06
2020,11,17,14,43,989.10
2020,11,17,14,44,989.10
2020,11,17,14,45,989.16
2020,11,17,14,46,989.16
2020,11,17,14,47,989.20
2020,11,17,14,48,989.16
2020,11,17,14,49,989.10
2020,11,17,14,50,989.13
2020,11,17,14,51,989.16
2020,11,17,14,52,989.13
2020,11,17,14,53,989.16
2020,11,17,14,54,989.13
2020,11,17,14,55,989.10
2020,11,17,14,56,989.13
2020,11,17,14,57,989.13
2020,11,17,14,58,989.16
2020,11,17,14,59,989.13
2020,11,17,15,00,989.16
2020,11,17,15,01,989.10
2020,11,17,15,02,989.16
2020,11,17,15,03,989.16
2020,11,17,15,04,989.13
2020,11,17,15,05,989.13
2020,11,17,15,06,989.16
2020,11,17,15,07,989.13
2020,11,17,15,08,989.10
2020,11,17,15,09,989.13
2020,11,17,15,10,989.20
2020,11,17,15,11,989.16
2020,11,17,15,12,989.20
2020,11,17,15,13,989.20
2020,11,17,15,14,989.16
2020,11,17,15,15,989.13
2020,11,17,15,16,989.13
2020,11,17,15,17,989.20
2020,11,17,15,18,989.27
2020,11,17,15,19,989.23
2020,11,17,15,20,989.20
2020,11,17,15,21,989.16
2020,11,17,15,22,989.20
2020,11,17,15,23,989.23
2020,11,17,15,24,989.30
2020,11,17,15,25,989.23
2020,11,17,15,26,989.27
2020,11,17,15,27,989.27
2020,11,17,15,28,989.30
2020,11,17,15,29,989.33
2020,11,17,15,30,989.37
2020,11,17,15,31,989.37
2020,11,17,15,32,989.47
2020,11,17,15,33,989.50
2020,11,17,15,34,989.47
2020,11,17,15,35,989.54
2020,11,17,15,36,989.54
2020,11,17,15,37,989.47
2020,11,17,15,38,989.54
2020,11,17,15,39,989.50
2020,11,17,15,40,989.50
2020,11,17,15,41,989.44
2020,11,17,15,42,989.57
2020,11,17,15,43,989.50
2020,11,17,15,44,989.60
2020,11,17,15,45,989.64
2020,11,17,15,46,989.64
2020,11,17,15,47,989.67
2020,11,17,15,48,989.60
2020,11,17,15,49,989.64
2020,11,17,15,50,989.71
2020,11,17,15,51,989.77
2020,11,17,15,52,989.77
2020,11,17,15,53,989.81
2020,11,17,15,54,989.84
2020,11,17,15,55,989.88
2020,11,17,15,56,989.94
2020,11,17,15,57,989.94
2020,11,17,15,58,989.88
2020,11,17,15,59,989.81
2020,11,17,16,00,989.91
2020,11,17,16,01,990.08
2020,11,17,16,02,990.18
2020,11,17,16,03,990.21
2020,11,17,16,04,990.18
2020,11,17,16,05,990.21
2020,11,17,16,06,990.21
2020,11,17,16,07,990.25
2020,11,17,16,08,990.45
2020,11,17,16,09,990.38
2020,11,17,16,10,990.35
2020,11,17,16,11,990.32
2020,11,17,16,12,990.42
2020,11,17,16,13,990.45
2020,11,17,16,14,990.49
2020,11,17,16,15,990.42
2020,11,17,16,16,990.42
2020,11,17,16,17,990.52
2020,11,17,16,18,990.65
2020,11,17,16,19,990.65
2020,11,17,16,20,990.69
2020,11,17,16,21,990.62
2020,11,17,16,22,990.59
2020,11,17,16,23,990.59
2020,11,17,16,24,990.52
2020,11,17,16,25,990.55
2020,11,17,16,26,990.65
2020,11,17,16,27,990.69
2020,11,17,16,28,990.76
2020,11,17,16,29,990.72
2020,11,17,16,30,990.72
2020,11,17,16,31,990.76
2020,11,17,16,32,990.82
2020,11,17,16,33,990.79
2020,11,17,16,34,990.79
2020,11,17,16,35,990.76
2020,11,17,16,36,990.76
2020,11,17,16,37,990.76
2020,11,17,16,38,990.79
2020,11,17,16,39,990.82